Time,TemperatureF,DewpointF,PressureIn,WindDirection,WindDirectionDegrees,WindSpeedMPH,WindSpeedGustMPH,Humidity,HourlyPrecipIn,Conditions,Clouds,dailyrainin,SolarRadiationWatts/m^2,SoftwareType,DateUTC
2013-01-23 00:02:00,2.0,-2.0,-100.00,NNE,18,9.0,10.0,82,-99.99,,,-99.99,-0.100000,,2013-01-23 07:02:00,
2013-01-23 00:11:00,2.0,-3.0,-100.00,NNE,26,8.0,9.0,81,-99.99,,,-99.99,-0.100000,,2013-01-23 07:11:00,
2013-01-23 00:32:00,3.0,-1.0,-100.00,NNE,24,5.0,6.0,83,-99.99,,,-99.99,-0.100000,,2013-01-23 07:32:00,
2013-01-23 00:42:00,3.0,-2.0,-100.00,North,10,4.0,5.0,81,-99.99,,,-99.99,-0.100000,,2013-01-23 07:42:00,
2013-01-23 00:52:00,2.0,-3.0,-100.00,NNE,31,5.0,7.0,81,-99.99,,,-99.99,-0.100000,,2013-01-23 07:52:00,
2013-01-23 02:42:00,4.0,-1.0,-100.00,North,358,8.0,10.0,80,-99.99,,,-99.99,0.000000,,2013-01-23 09:42:00,
2013-01-23 03:11:00,5.0,0.0,-100.00,North,357,8.0,9.0,81,-99.99,,,-99.99,-0.100000,,2013-01-23 10:11:00,
2013-01-23 03:32:00,5.0,0.0,-100.00,NNE,21,9.0,10.0,79,-99.99,,,-99.99,-0.100000,,2013-01-23 10:32:00,
2013-01-23 03:52:00,4.0,0.0,-100.00,NNE,30,7.0,9.0,80,-99.99,,,-99.99,-0.100000,,2013-01-23 10:52:00,
2013-01-23 04:22:00,6.0,2.0,-100.00,NE,44,5.0,7.0,82,-99.99,,,-99.99,-0.100000,,2013-01-23 11:22:00,
2013-01-23 04:52:00,1.0,-3.0,-100.00,NE,47,4.0,5.0,83,-99.99,,,-99.99,-0.100000,,2013-01-23 11:52:00,
2013-01-23 06:03:00,-1.0,-5.0,-100.00,North,4,9.0,9.0,82,-99.99,,,-99.99,-0.100000,,2013-01-23 13:03:00,
2013-01-23 06:22:00,0.0,-4.0,-100.00,North,8,8.0,10.0,82,-99.99,,,-99.99,-0.100000,,2013-01-23 13:22:00,
2013-01-23 06:42:00,1.0,-3.0,-100.00,North,6,9.0,10.0,83,-99.99,,,-99.99,0.000000,,2013-01-23 13:42:00,
2013-01-23 07:11:00,0.0,-4.0,-100.00,North,355,8.0,10.0,82,-99.99,,,-99.99,-0.100000,,2013-01-23 14:11:00,
2013-01-23 08:02:00,2.0,-2.0,-100.00,NNE,19,9.0,9.0,82,-99.99,,,-99.99,1.000000,,2013-01-23 15:02:00,
2013-01-23 09:02:00,3.0,-1.0,-100.00,North,357,7.0,7.0,83,-99.99,,,-99.99,75.400002,,2013-01-23 16:02:00,
2013-01-23 09:22:00,2.0,-2.0,-100.00,North,354,8.0,9.0,81,-99.99,,,-99.99,84.800003,,2013-01-23 16:22:00,
2013-01-23 09:42:00,4.0,0.0,-100.00,North,2,7.0,8.0,81,-99.99,,,-99.99,107.500000,,2013-01-23 16:42:00,
2013-01-23 10:02:00,6.0,1.0,-100.00,North,3,6.0,7.0,81,-99.99,,,-99.99,135.699997,,2013-01-23 17:02:00,
2013-01-23 10:22:00,7.0,2.0,-100.00,NNE,21,5.0,6.0,81,-99.99,,,-99.99,180.000000,,2013-01-23 17:22:00,
2013-01-23 10:52:00,8.0,4.0,-100.00,North,7,4.0,5.0,81,-99.99,,,-99.99,221.100006,,2013-01-23 17:52:00,
2013-01-23 11:32:00,10.0,6.0,-100.00,North,350,4.0,5.0,81,-99.99,,,-99.99,282.100006,,2013-01-23 18:32:00,
2013-01-23 12:02:00,13.0,8.0,-100.00,NE,49,4.0,6.0,78,-99.99,,,-99.99,427.299988,,2013-01-23 19:02:00,
2013-01-23 12:52:00,17.0,11.0,-100.00,North,357,8.0,9.0,77,-99.99,,,-99.99,534.000000,,2013-01-23 19:52:00,
2013-01-23 14:33:00,24.0,16.0,-100.00,NE,34,9.0,10.0,72,-99.99,,,-99.99,270.600006,,2013-01-23 21:33:00,
2013-01-23 16:02:00,26.0,19.0,-100.00,NE,53,6.0,7.0,75,-99.99,,,-99.99,267.799988,,2013-01-23 23:02:00,
2013-01-23 17:02:00,24.0,18.0,-100.00,ENE,66,3.0,4.0,76,-99.99,,,-99.99,48.500000,,2013-01-24 00:02:00,